Location: Celina Division
(33.3022°N, 96.7580°W)
Time: 23:00:48
(UTC+00:00)

N. Korean satellite - Pass Details

Date: 08 December 2022
Orbit: 407 x 442 km, 97.3° (Epoch: 05 February)

Event Time Altitude Azimuth Distance (km) Brightness Sun altitude
Rises 23:45:46 0° 198° (SSW) 2,442 10.8 -5.8°
Reaches altitude 10° 23:48:11 10° 217° (SW) 1,587 10.3 -6.3°
Maximum altitude 23:50:42 19° 265° (W) 1,144 9.6 -6.7°
Drops below altitude 10° 23:53:16 10° 312° (NW) 1,614 9.6 -7.2°
Sets 23:55:46 0° 331° (NNW) 2,501 10.3 -7.7°
